Location: ???????
(55.3754°N, 39.3545°E)
Time: 07:13:20
(UTC+00:00)

Cosmos 2237 - Pass Details

Date: 14 April 2026
Orbit: 846 x 857 km, 70.8° (Epoch: 12 May)

Event Time Altitude Azimuth Distance (km) Brightness Sun altitude
Rises 23:28:33 0° 325° (NW) 3,436 7.7 -19.8°
Reaches altitude 10° 23:31:00 10° 325° (NW) 2,498 6.9 -19.6°
Maximum altitude 23:36:46 89° 240° (WSW) 865 4.2 -19.2°
Drops below altitude 10° 23:42:31 10° 148° (SSE) 2,488 6.4 -18.7°
Sets 23:44:57 0° 149° (SSE) 3,421 7.1 -18.5°
